Simultaneous Nadir Overpasses (SNOs) Predictions

Prediction of SNOs between LANDSAT-8 and NOAA-19 Satellite Orbit:

Table of predicted SNOs for the next 14.0 days since TLE Epoch: 5/30/2015
Index Date (LANDSAT-8) Time (LANDSAT-8) Lat,Lon (LANDSAT-8) SZA (LANDSAT-8 ) Date (NOAA-19) Time (NOAA-19) Lat,Lon (NOAA-19) SZA (NOAA-19 ) Distance(km) Time Diff (sec)
1 05/30/2015 17:08:21 -73.32, 104.46 128.56 05/30/2015 17:07:08 -73.39, 104.04 128.49 15.56 73
2 05/30/2015 17:57:49 73.19, -88.17 51.31 05/30/2015 17:58:09 73.16, -88.21 51.29 2.86 20
3 06/01/2015 22:42:08 73.22,-159.18 51.03 06/01/2015 22:41:32 73.21,-159.11 51.02 2.60 36
4 06/01/2015 23:31:37 -73.15, 8.32 129.05 06/01/2015 23:32:27 -73.12, 8.34 129.07 3.28 50
5 06/04/2015 03:26:15 73.87, 131.14 51.43 06/04/2015 03:25:09 73.94, 128.32 51.47 87.35 66
6 06/04/2015 04:15:56 -73.18, -62.70 129.29 06/04/2015 04:15:50 -73.19, -62.61 129.28 2.78 6
7 06/04/2015 05:05:36 72.40, 103.44 49.92 06/04/2015 05:06:41 72.42, 106.27 49.97 95.14 65
8 06/06/2015 09:00:14 -73.26,-133.62 129.46 06/06/2015 08:59:13 -73.26,-133.58 129.46 1.35 61
9 06/06/2015 09:49:41 73.17, 33.84 50.45 06/06/2015 09:50:18 73.17, 33.84 50.46 0.86 37
10 06/08/2015 14:33:59 73.23, -37.10 50.30 06/08/2015 14:33:41 73.23, -37.11 50.30 0.27 18
11 06/08/2015 15:23:28 -73.17, 130.42 129.77 06/08/2015 15:24:35 -73.15, 130.36 129.79 3.36 67
12 06/10/2015 19:18:17 73.29,-108.05 50.18 06/10/2015 19:17:04 73.30,-108.06 50.19 0.90 73
13 06/10/2015 20:07:46 -73.24,
